User: anonymous   Login
Location: Unspecified
(0.0000°N, 0.0000°E)
Time: 10:15:47
(UTC+02:00)
Language:

IUS-9 SRM-1 - Orbit

View from above orbital plane
View from above orbital plane
View from above satellite
View from above satellite

Ground track
Ground track

The orbit data is extracted from the following two-line orbital elements,

1 19884U 89021C   16119.36745233  .00008688  00000-0  98913-3 0  9994
2 19884  26.5281 328.0080 6000803 122.1041 309.9865  4.06741779316932
Epoch (UTC): 28 April 2016 08:49:07
Eccentricity: 0.6000803
inclination: 26.5281°
perigee height: 251 km
apogee height: 20147 km
right ascension of ascending node: 328.0080°
argument of perigee: 122.1041°
revolutions per day: 4.06741779
mean anomaly at epoch: 309.9865°
orbit number at epoch: 31693

The dashed part of the orbit path shows where the satellite is in the earth's shadow,  

DLR